Retour au catalogue

ASTRA-HYRAX

ActifMilitaireVLEO
NORAD 68627·PAYLOAD·🇺🇸 United States
Ce nom de satellite n'a pas encore été confirmé par des sources officielles.

Lancé Apr 7, 2026 depuis Vandenberg Space Force Base

Loading…

Prochains Passages (prochaines 24 heures)

TLE

FraisSource: Space-Track

Époque: Sep 14, 2026, 08:54 UTC

1 68627U 26074A   26257.37125299  .00007894  00000-0  31462-3 0  9995
2 68627  60.0171 195.9309 0037119  80.5272 280.0002 15.25471840 24383

Suivez ASTRA-HYRAX en temps réel avec AllMySat

Download on the App Store